TimeEDT,TemperatureF,Dew PointF,Humidity,Sea Level PressureIn,VisibilityMPH,Wind Direction,Wind SpeedMPH,Gust SpeedMPH,PrecipitationIn,Events,Conditions,WindDirDegrees,DateUTC
12:14 AM,77.5,56.5,48,29.75,10.0,South,5.8,-,N/A,,Scattered Clouds,190,2012-05-29 04:14:00
12:34 AM,78.8,55.9,45,29.74,10.0,SSW,6.9,-,N/A,,Mostly Cloudy,200,2012-05-29 04:34:00
12:54 AM,79.3,55.6,44,29.74,10.0,SSW,8.1,-,N/A,,Overcast,210,2012-05-29 04:54:00
1:14 AM,79.9,55.4,43,29.75,10.0,SSW,6.9,16.1,N/A,,Overcast,210,2012-05-29 05:14:00
1:34 AM,80.1,55.6,43,29.74,10.0,SSW,9.2,-,N/A,,Overcast,200,2012-05-29 05:34:00
1:54 AM,79.5,56.3,45,29.74,10.0,SSW,8.1,-,N/A,,Overcast,210,2012-05-29 05:54:00
2:14 AM,79.2,56.8,46,29.74,10.0,SSW,6.9,-,N/A,,Overcast,200,2012-05-29 06:14:00
2:34 AM,77.9,57.4,49,29.74,10.0,SW,6.9,-,N/A,,Scattered Clouds,220,2012-05-29 06:34:00
2:54 AM,77.2,58.1,52,29.74,10.0,SSW,4.6,-,N/A,,Clear,210,2012-05-29 06:54:00
3:14 AM,76.6,57.7,52,29.76,10.0,West,9.2,-,N/A,,Scattered Clouds,270,2012-05-29 07:14:00
3:34 AM,73.0,59.9,63,29.75,10.0,WNW,6.9,-,N/A,Rain,Light Rain,290,2012-05-29 07:34:00
3:54 AM,70.9,59.9,68,29.74,10.0,Calm,Calm,-,N/A,,Scattered Clouds,0,2012-05-29 07:54:00
4:14 AM,69.4,61.2,75,29.73,10.0,South,3.5,-,N/A,,Clear,190,2012-05-29 08:14:00
4:34 AM,67.8,61.5,80,29.73,10.0,SSW,4.6,-,N/A,,Clear,200,2012-05-29 08:34:00
4:54 AM,68.7,61.7,78,29.71,10.0,South,3.5,-,N/A,,Clear,190,2012-05-29 08:54:00
5:14 AM,68.2,61.7,80,29.71,10.0,SSW,4.6,-,N/A,,Clear,200,2012-05-29 09:14:00
5:34 AM,67.1,61.7,83,29.72,10.0,SSW,4.6,-,N/A,,Clear,210,2012-05-29 09:34:00
5:54 AM,66.4,61.7,85,29.72,10.0,West,4.6,-,N/A,,Clear,270,2012-05-29 09:54:00
6:14 AM,65.5,61.2,86,29.73,10.0,West,4.6,-,N/A,,Clear,270,2012-05-29 10:14:00
6:34 AM,66.4,61.7,85,29.72,10.0,West,4.6,-,N/A,,Clear,260,2012-05-29 10:34:00
6:54 AM,68.0,62.2,82,29.73,10.0,West,6.9,-,N/A,,Clear,260,2012-05-29 10:54:00
7:14 AM,70.0,62.2,76,29.74,10.0,West,9.2,-,N/A,,Clear,270,2012-05-29 11:14:00
7:34 AM,70.3,62.1,75,29.74,10.0,West,8.1,-,N/A,,Clear,270,2012-05-29 11:34:00
7:54 AM,70.3,62.2,75,29.75,10.0,WSW,5.8,-,N/A,,Clear,250,2012-05-29 11:54:00
8:14 AM,71.1,62.6,75,29.77,10.0,West,5.8,-,N/A,,Clear,270,2012-05-29 12:14:00
8:34 AM,71.1,62.8,75,29.78,10.0,West,8.1,-,N/A,,Scattered Clouds,270,2012-05-29 12:34:00
8:54 AM,71.6,62.6,73,29.79,10.0,West,8.1,-,N/A,,Scattered Clouds,270,2012-05-29 12:54:00
9:14 AM,72.5,62.1,70,29.79,10.0,West,8.1,-,N/A,,Scattered Clouds,280,2012-05-29 13:14:00
9:34 AM,72.3,60.6,67,29.81,10.0,West,8.1,-,N/A,,Scattered Clouds,270,2012-05-29 13:34:00
9:54 AM,71.6,59.4,65,29.81,10.0,WNW,12.7,-,N/A,,Mostly Cloudy,290,2012-05-29 13:54:00
10:13 AM,72.1,57.9,61,29.81,10.0,WNW,11.5,-,N/A,,Scattered Clouds,290,2012-05-29 14:13:00
10:34 AM,72.9,55.8,55,29.81,10.0,WNW,9.2,20.7,N/A,,Scattered Clouds,300,2012-05-29 14:34:00
10:54 AM,73.0,53.1,49,29.82,10.0,West,15.0,21.9,N/A,,Scattered Clouds,280,2012-05-29 14:54:00
11:14 AM,73.0,53.8,51,29.82,10.0,NW,9.2,-,N/A,,Clear,310,2012-05-29 15:14:00
11:34 AM,74.1,48.6,40,29.82,10.0,WNW,13.8,20.7,N/A,,Clear,290,2012-05-29 15:34:00
11:54 AM,75.7,48.4,38,29.83,10.0,West,15.0,-,N/A,,Clear,270,2012-05-29 15:54:00
12:14 PM,77.0,43.5,30,29.83,10.0,West,12.7,18.4,N/A,,Clear,280,2012-05-29 16:14:00
12:34 PM,77.5,42.4,29,29.82,10.0,WNW,11.5,19.6,N/A,,Clear,300,2012-05-29 16:34:00
12:54 PM,79.0,40.8,26,29.82,10.0,West,12.7,21.9,N/A,,Clear,280,2012-05-29 16:54:00
1:14 PM,78.4,40.6,26,29.81,10.0,WNW,11.5,17.3,N/A,,Clear,290,2012-05-29 17:14:00
1:34 PM,78.4,40.5,26,29.81,10.0,WNW,13.8,19.6,N/A,,Clear,290,2012-05-29 17:34:00
1:54 PM,78.8,41.5,26,29.80,10.0,WNW,9.2,-,N/A,,Clear,300,2012-05-29 17:54:00
2:14 PM,79.0,39.7,25,29.80,10.0,WNW,10.4,18.4,N/A,,Clear,290,2012-05-29 18:14:00
2:34 PM,79.0,40.8,26,29.78,10.0,WNW,11.5,-,N/A,,Clear,290,2012-05-29 18:34:00
2:54 PM,80.6,40.6,24,29.78,10.0,WSW,11.5,-,N/A,,Clear,240,2012-05-29 18:54:00
3:14 PM,81.1,39.6,23,29.77,10.0,West,15.0,20.7,N/A,,Clear,270,2012-05-29 19:14:00
3:35 PM,81.1,38.5,22,29.76,10.0,WSW,17.3,-,N/A,,Clear,250,2012-05-29 19:35:00
3:54 PM,82.4,40.5,23,29.76,10.0,West,13.8,20.7,N/A,,Clear,260,2012-05-29 19:54:00
4:14 PM,81.9,37.0,20,29.76,10.0,West,18.4,23.0,N/A,,Clear,280,2012-05-29 20:14:00
4:34 PM,80.6,37.9,22,29.76,10.0,West,12.7,20.7,N/A,,Clear,270,2012-05-29 20:34:00
4:54 PM,81.1,38.8,22,29.76,10.0,West,11.5,20.7,N/A,,Clear,260,2012-05-29 20:54:00
5:14 PM,80.4,37.2,21,29.76,10.0,West,15.0,24.2,N/A,,Clear,270,2012-05-29 21:14:00
5:34 PM,81.5,37.4,21,29.75,10.0,WSW,19.6,28.8,N/A,,Clear,250,2012-05-29 21:34:00
5:54 PM,81.5,37.8,21,29.75,10.0,West,17.3,24.2,N/A,,Clear,270,2012-05-29 21:54:00
6:14 PM,80.4,36.7,21,29.75,10.0,West,20.7,27.6,N/A,,Clear,270,2012-05-29 22:14:00
6:34 PM,79.2,38.3,23,29.75,10.0,West,17.3,26.5,N/A,,Clear,270,2012-05-29 22:34:00
6:54 PM,78.4,38.7,24,29.75,10.0,West,16.1,26.5,N/A,,Clear,270,2012-05-29 22:54:00
7:13 PM,78.1,39.0,25,29.75,10.0,West,15.0,20.7,N/A,,Clear,270,2012-05-29 23:13:00
7:34 PM,77.0,39.7,26,29.75,10.0,West,13.8,21.9,N/A,,Clear,270,2012-05-29 23:34:00
7:54 PM,77.0,41.4,28,29.74,10.0,West,13.8,18.4,N/A,,Scattered Clouds,260,2012-05-29 23:54:00
8:15 PM,75.7,41.7,30,29.75,10.0,West,13.8,21.9,N/A,,Scattered Clouds,270,2012-05-30 00:15:00
8:34 PM,74.8,42.1,31,29.75,10.0,West,11.5,19.6,N/A,,Clear,270,2012-05-30 00:34:00
8:54 PM,73.4,42.8,33,29.75,10.0,West,8.1,-,N/A,,Scattered Clouds,280,2012-05-30 00:54:00
9:14 PM,72.1,42.6,34,29.76,10.0,WNW,9.2,-,N/A,,Scattered Clouds,300,2012-05-30 01:14:00
9:34 PM,70.7,42.1,35,29.77,10.0,WNW,11.5,16.1,N/A,,Clear,300,2012-05-30 01:34:00
9:54 PM,69.1,41.9,37,29.78,10.0,WNW,10.4,17.3,N/A,,Clear,300,2012-05-30 01:54:00
10:14 PM,68.4,40.1,36,29.79,10.0,WNW,8.1,-,N/A,,Clear,290,2012-05-30 02:14:00
10:34 PM,66.4,40.1,38,29.80,10.0,West,8.1,-,N/A,,Clear,280,2012-05-30 02:34:00
10:54 PM,64.8,40.8,42,29.80,10.0,WNW,5.8,-,N/A,,Clear,290,2012-05-30 02:54:00
11:14 PM,64.6,40.3,41,29.81,10.0,West,5.8,-,N/A,,Clear,280,2012-05-30 03:14:00
11:34 PM,62.6,41.2,45,29.81,10.0,WNW,5.8,-,N/A,,Clear,290,2012-05-30 03:34:00
11:54 PM,61.9,41.4,47,29.81,10.0,WNW,5.8,-,N/A,,Clear,290,2012-05-30 03:54:00